MONTEREY 27NM WNW of Monterey, CA (46042)

Conditions for Sunday

Daily
Weekly
Monthly
Marine Data Graph

Current Weather/Wave Observations

Air Temperature: 56° F
Humidity: 84
Wind direction (W Dir): North (345 - 354 Degrees)
Wind Speed (W Spd): 9.7 kts (11.2 mph)
Wind Gust (W Spd): 11.7 kts (13.4 mph)
Atmospheric Pressure (AP): 30.14 in

Updated: 11:30 PM PST on December 08, 2019

Marine & Boating Location Search

Enter a coastal zip code for marine weather.

General Information

Location: 36.791 North -122.452 West
Buoy Type: 3-meter discus buoy
Buoy Hull: 3D79
Payload: ARES payload
Owned by: NDBC
Windspeed: Measured by obtained from anemometer
Sea Surface: Measured by Intake
Note: "Potential Explosion Hazard Exists for this Buoy"

Weather and Wave Data

Time Temp Humidity Wind Dominant Wave Wind Wave Wave Swell Pressure
  Air
(°F)
Water
(°F)
  Dir Speed
(kts)
Speed
(mph)
Period
(sec)
Height
(ft)
Range
(ft)
Period
(sec)
Height
(ft)
Range
(ft)
Period
(sec)
Height
(ft)
Range
(ft)
Atmo.
(in)
Tend.
(in)
20:00 58 57 94 SSW 11.7 13.4 - - - - - - 29.98 -
20:10 58 57 95 SSW 11.7 13.4 - - - - - - 29.99 -
20:20 58 57 94 SSW 9.7 11.2 - - - - - - 29.99 -
20:30 58 57 94 SSW 9.7 11.2 - - - - - - 29.99 -
21:40 58 57 94 SSW 9.7 11.2 - - - - - - 29.99 -
21:50 58 57 94 SSW 9.7 11.2 14 9.19 exactly 9.2 5 3.28 2.46 - 4.10 14 8.20 7.38 - 9.02 30.00 -
22:30 58 57 94 SSW 11.7 13.4 - - - - - - 30.00 -
23:40 58 57 94 SSW 11.7 13.4 - - - - - - 29.99 -
23:50 58 57 94 SSW 11.7 13.4 12 8.20 exactly 8.2 6 3.28 2.46 - 4.10 12 8.20 7.38 - 9.02 29.99 -
00:00 58 57 94 SSW 11.7 13.4 - - - - - - 29.99 -
00:30 58 57 94 SSW 11.7 13.4 - - - - - - 29.99 -
00:40 58 57 94 SSW 11.7 13.4 - - - - - - 29.99 -
01:10 58 57 92 SSW 11.7 13.4 - - - - - - 29.99 -
02:00 58 57 91 SSW 11.7 13.4 - - - - - - 29.99 -
02:40 57 57 95 SSW 7.8 8.9 - - - - - - 29.99 -
02:50 57 57 95 SSW 7.8 8.9 11 8.86 exactly 8.9 4 1.64 0.82 - 2.46 11 8.20 7.38 - 9.02 29.99 -
03:20 57 57 96 SSW 9.7 11.2 - - - - - - 29.99 -
03:30 57 57 96 SSW 9.7 11.2 - - - - - - 29.99 -
03:40 57 57 96 SSW 7.8 8.9 - - - - - - 29.99 -
03:50 57 57 95 SSW 7.8 8.9 12 8.20 exactly 8.2 4 1.64 0.82 - 2.46 12 8.20 7.38 - 9.02 29.98 -
04:10 57 57 96 SW 7.8 8.9 - - - - - - 29.99 -
04:40 57 57 94 SW 9.7 11.2 - - - - - - 29.98 -
05:00 57 57 93 SW 7.8 8.9 - - - - - - 29.99 -
05:10 57 57 93 SW 7.8 8.9 - - - - - - 29.99 -
05:20 57 57 93 SW 7.8 8.9 - - - - - - 29.99 -
05:40 57 57 94 SW 7.8 8.9 - - - - - - 29.99 -
06:30 57 57 94 SSW 5.8 6.7 - - - - - - 30.00 -
07:00 56 57 95 WSW 7.8 8.9 - - - - - - 30.00 -
07:50 56 57 95 WSW 5.8 6.7 13 8.20 exactly 8.2 4 1.64 0.82 - 2.46 13 8.20 7.38 - 9.02 30.01 -
08:00 56 57 95 West 5.8 6.7 - - - - - - 30.01 -
08:50 55 57 95 WNW 9.7 11.2 12 9.19 exactly 9.2 4 1.64 0.82 - 2.46 12 8.20 7.38 - 9.02 30.03 -
09:00 55 57 95 NW 5.8 6.7 - - - - - - 30.03 -
09:20 56 57 90 NW 5.8 6.7 - - - - - - 30.04 -
09:30 56 57 91 NW 5.8 6.7 - - - - - - 30.04 -
09:40 56 57 92 NW 5.8 6.7 - - - - - - 30.05 -
09:50 56 57 91 NW 7.8 8.9 13 8.86 exactly 8.9 4 1.64 0.82 - 2.46 13 8.20 7.38 - 9.02 30.05 -
10:10 56 57 90 NW 5.8 6.7 - - - - - - 30.06 -
10:30 57 57 87 WNW 5.8 6.7 - - - - - - 30.06 -
11:50 56 57 89 NW 3.9 4.5 11 9.51 exactly 9.5 4 1.64 0.82 - 2.46 11 9.84 9.02 - 10.66 30.05 -
13:50 56 57 90 NW 5.8 6.7 12 8.53 exactly 8.5 4 1.64 0.82 - 2.46 12 8.20 7.38 - 9.02 30.04 -
14:10 56 57 89 NNW 5.8 6.7 - - - - - - 30.04 -
14:40 56 57 86 NW 7.8 8.9 - - - - - - 30.03 -
14:50 56 57 87 NW 7.8 8.9 12 8.20 exactly 8.2 4 1.64 0.82 - 2.46 12 8.20 7.38 - 9.02 30.04 -
15:00 56 57 90 NW 9.7 11.2 - - - - - - 30.04 -
15:50 55 57 93 NW 13.6 15.7 12 6.89 exactly 6.9 6 3.28 2.46 - 4.10 12 6.56 5.74 - 7.38 30.05 -
16:20 54 57 95 NW 13.6 15.7 - - - - - - 30.05 -
17:00 54 57 93 NW 13.6 15.7 - - - - - - 30.05 -
17:10 54 57 95 NW 11.7 13.4 - - - - - - 30.06 -
17:30 54 57 94 NW 13.6 15.7 - - - - - - 30.06 -
17:40 54 57 95 NW 13.6 15.7 - - - - - - 30.06 -
18:20 54 57 93 NW 13.6 15.7 - - - - - - 30.06 -
19:00 54 57 95 NNW 13.6 15.7 - - - - - - 30.07 -
19:10 54 57 95 NW 13.6 15.7 - - - - - - 30.08 -
19:50 54 57 95 NNW 15.6 17.9 11 6.56 exactly 6.6 7 3.28 2.46 - 4.10 11 4.92 4.10 - 5.74 30.09 -
20:00 54 57 95 NNW 15.6 17.9 - - - - - - 30.09 -
21:20 56 57 86 NNW 13.6 15.7 - - - - - - 30.11 -
21:40 56 57 85 NNW 13.6 15.7 - - - - - - 30.12 -
22:10 56 57 86 NNW 13.6 15.7 - - - - - - 30.13 -
22:20 56 57 86 NNW 13.6 15.7 - - - - - - 30.13 -
22:30 56 57 86 NNW 11.7 13.4 - - - - - - 30.13 -
22:50 56 57 85 NNW 11.7 13.4 11 7.22 exactly 7.2 5 3.28 2.46 - 4.10 11 6.56 5.74 - 7.38 30.13 -
23:30 56 57 84 North 9.7 11.2 - - - - - - 30.14 -

Detailed Wave Spectra

Time Water Depth Wave Height Spectral Peak Period Average Wave Period Sampling Interval Wave Record
12:00 5400 ft 9.61 ft 10.8 sec 8.3 sec 0.6 sec 2400 sec
14:00 5400 ft 8.63 ft 12.1 sec 8.2 sec 0.6 sec 2400 sec
18:00 5400 ft 8.14 ft 11.4 sec 7.7 sec 0.6 sec 2400 sec
21:00 5400 ft 7.28 ft 12.1 sec 7.3 sec 0.6 sec 2400 sec